Nueva Hesperides International Airport

Jump to: basic info | weather | frequencies | runways | comments

Related pages: nearby airports | nearby navaids | notams | map

Basic information (top)

Codes: STY SUSO
Location: lon -31.438499, lat -57.985298, elev 187 ft / 57 m msl
Status: medium_airport

Weather (top)

Current conditions (rec'd 2014/12/22 11:00Z):

SUSO 221100Z 24010KT CAVOK 18/10 Q1016

Airport forecast (rec'd 2014/12/21 18:00Z):

TAF SUSO 211750Z 2118/2218 18015KT 9999 SCT012 SCT070 TX25/2219Z TN12/2209Z 
      TEMPO 2118/2200 18015G27KT PROB40 
      TEMPO 5000 DZRA BKN008 OVC060 
      BECMG 2204/2206 14005KT 
      BECMG 2216/2218 20005KT

Frequencies (top)

Verify before use: may be inaccurate or out of date.

RDO: 286 MHz (SALTO RDO)
TWR: 118.8 MHz (SALTO TWR)

Runways (top)

05/23: 5,210 x 148 ft (1,588 x 45 m) — paved — lighted

13/31: 2,461 x 164 ft (750 x 50 m) — grass — not lighted

Latest comments (top)

No comments yet for Nueva Hesperides International Airport

More... (top)

See also NOTAMs and nearby airports and navaids, or visit the Nueva Hesperides International Airport page at the main OurAirports website..